Location: Suburban Lights Observatory
(43.1572°N, 89.2764°W)
Time: 14:55:44
(UTC-05:00)

Daily predictions for brighter satellites

Satellite Brightness Start Highest point End
(mag) Time Altitude Azimuth Time Altitude Azimuth Time Altitude Azimuth
Cosmos 1328 4.3 21:11:35 10° SSE 21:15:18 41° E 21:19:02 10° NNE
Cosmos 2219 3.5 21:10:01 10° S 21:15:31 49° ESE 21:21:01 10° NE
Cosmos 2237 Rocket 3.9 21:15:26 10° N 21:19:40 21° NE 21:23:52 10° E
Cosmos 1441 Rocket 4.3 21:16:09 10° SSW 21:19:48 47° WNW 21:23:27 10° N
Cosmos 2322 Rocket 4.0 21:17:34 10° NW 21:22:15 28° WSW 21:26:55 10° SSW
DELTA 2 R/B (1) 4.4 21:18:21 10° W 21:23:27 38° SSW 21:28:31 10° SE
Cosmos 2322 3.9 21:18:01 10° NNW 21:23:45 78° WSW 21:29:26 10° SSE
Cosmos 1271 Rocket 4.5 21:22:49 10° NNE 21:25:35 19° ENE 21:28:22 10° ESE
Aureole 3 4.3 21:22:44 10° S 21:29:09 64° E 21:34:15 10° NNE
MetOp-B 4.4 21:24:36 10° SSE 21:29:49 56° ENE 21:35:04 10° N
CZ-4B R/B 4.3 21:25:42 10° NNE 21:30:29 35° E 21:35:11 10° SSE
Cosmos 2360 Rocket 2.5 21:25:10 10° NNW 21:30:46 66° WSW 21:36:22 10° SSE
Cosmos 405 3.8 21:29:15 10° NNW 21:32:49 54° W 21:36:21 10° S
SL-16 R/B 4.2 21:30:03 10° NW 21:34:29 24° WSW 21:38:54 10° SSW
SL-14 R/B 4.1 21:31:58 10° SSE 21:35:32 33° E 21:39:09 10° NNE
Nadezhda 2 Rocket 4.5 21:30:42 10° S 21:36:46 70° E 21:42:51 10° NNE
Meteor 1-27 4.5 21:32:15 10° N 21:37:51 56° ENE 21:43:17 10° SSE
Cosmos 1680 Rocket 3.8 21:33:09 10° NNW 21:38:23 67° WSW 21:43:35 10° S
H-2A R/B 3.6 21:37:07 10° ESE 21:41:17 24° ENE 21:45:32 10° NNE
Cosmos 304 Rocket 4.4 21:37:07 10° NNW 21:41:50 55° WSW 21:46:30 10° S
PSLV R/B 3.1 21:38:59 10° SSE 21:42:02 82° ENE 21:45:06 10° N
Cosmos 1626 4.3 21:41:39 10° ESE 21:42:44 11° E 21:43:50 10° ENE
Delta 2 Rocket 4.2 21:43:51 10° WSW 21:46:50 24° S 21:48:40 16° SE
SPOT 5 2.9 21:42:28 10° SSE 21:47:04 83° WSW 21:51:59 10° NNW
Cosmos 1674 4.0 21:43:39 10° SSW 21:47:18 43° WNW 21:51:02 10° N
Cosmos 2151 3.5 21:46:46 10° SSW 21:50:55 62° W 21:55:05 10° N
Cosmos 1898 Rocket 3.7 21:46:48 10° S 21:51:48 52° ESE 21:56:51 10° NNE
YAOGAN 6 2.6 21:50:10 13° SSE 21:53:17 71° ENE 21:56:53 10° N
SPOT 1/Viking Rocket 3.7 21:48:49 12° SSE 21:53:27 63° ENE 21:58:34 10° N
Lacrosse 4 Rocket 3.9 21:52:23 10° NNE 21:54:36 13° NE 21:56:48 10° ENE
Cosmos 2227 Rocket 3.1 21:55:43 13° SSE 21:59:56 29° ESE 22:04:46 10° NE
Cosmos 1300 2.7 21:56:40 10° N 22:00:31 87° W 22:03:49 14° S
Cosmos 2058 3.0 21:56:26 10° S 22:00:32 80° W 22:04:39 10° N
Cosmos 2150 Rocket 4.1 21:56:45 10° S 22:02:08 67° ESE 22:07:34 10° NNE
Cosmos 292 Rocket 3.9 22:00:33 10° NNW 22:05:18 64° ENE 22:08:40 19° SE
NOSS 3-1 (A) 3.4 21:59:44 10° SSW 22:05:34 71° ESE 22:12:04 10° NE
Cosmos 2242 Rocket 3.7 22:01:41 10° N 22:06:08 60° E 22:09:20 18° SSE
Meteor 1-11 4.2 22:01:03 10° S 22:06:49 86° E 22:12:34 10° N
Sich 1 3.0 22:03:05 10° S 22:07:29 72° E 22:11:53 10° NNE
COSMOS 2455 4.2 22:03:55 10° NNW 22:09:06 29° NE 22:14:03 11° ESE
Cosmos 1633 Rocket 3.0 22:08:22 11° S 22:12:34 77° E 22:16:57 10° N
Landsat 7 4.3 22:10:19 19° SE 22:13:28 48° ENE 22:18:03 10° N
SL-16 R/B 3.8 22:09:26 10° N 22:14:00 24° NE 22:18:12 11° ESE
Cosmos 2333 Rocket 2.6 22:09:47 10° NNW 22:15:28 56° ENE 22:19:24 20° SE
USA 245 2.3 22:15:30 28° S 22:16:35 63° WSW 22:18:51 10° NNW
FALCON 9 R/B 4.4 21:48:43 10° WSW 22:20:05 59° S 22:27:16 13° ESE
Cosmos 1346 4.0 22:20:05 28° ESE 22:20:35 30° E 22:23:18 10° NNE
Cosmos 1455 3.0 22:19:21 10° N 22:22:55 37° ENE 22:24:28 26° SE
BREEZE-M DEB (TANK) 3.0 22:21:32 10° NW 22:23:26 36° NNE 22:25:19 16° E
ARGOS 3.2 22:22:16 17° S 22:26:28 80° WSW 22:31:54 10° NNW
ERBS 2.6 22:23:12 10° SSW 22:26:33 44° SE 22:29:53 10° ENE
Cosmos 2297 Rocket 2.9 22:23:49 21° SSE 22:26:43 34° ESE 22:31:45 10° NE
COSMOS 2428 3.4 22:21:44 10° NW 22:27:10 47° WSW 22:31:38 15° S
ATLAS 2AS CENTAUR R/B 3.3 22:20:58 10° S 22:27:58 46° ESE 22:35:30 10° NE
DELTA 2 DEB (DPAF) 4.2 22:25:18 24° SSE 22:28:00 72° ENE 22:32:29 10° N
Terra 2.3 22:26:41 23° SE 22:29:20 49° ENE 22:33:55 10° N
Cosmos 2219 Rocket 2.2 22:25:32 10° NNW 22:31:10 86° WSW 22:34:44 23° SSE
USA 32 4.1 22:28:12 10° N 22:33:29 83° W 22:37:17 19° S
Cosmos 1726 3.3 22:32:11 10° NNW 22:35:45 39° W 22:38:27 16° SSW
Spot 4 4.4 22:34:28 25° SE 22:36:56 46° ENE 22:41:36 10° N
IGS 5A 3.8 22:36:25 29° SE 22:38:14 51° ENE 22:42:18 10° N
ATLAS 3B R/B 3.3 22:33:39 10° NNW 22:40:32 49° NE 22:45:17 19° ESE
SL-08 RB Rocket 4.0 22:38:56 22° S 22:41:46 62° W 22:46:14 10° NNW
Cosmos 220 Rocket 4.3 22:41:16 10° SSW 22:45:37 70° WNW 22:50:05 10° NNE
OAO 2 Rocket 4.1 22:42:11 10° WSW 22:46:56 33° S 22:48:06 30° SSE
Cosmos 1937 Rocket 3.8 22:43:46 10° SSW 22:48:59 69° WNW 22:54:11 10° NNE
Cosmos 1869 3.4 22:45:08 10° N 22:49:11 64° E 22:50:34 38° SSE
Tiangong 1 0.8 22:47:27 10° WSW 22:50:33 74° S 22:51:01 58° ESE
NOSS 3-1 (C) 4.4 22:46:04 10° WSW 22:51:51 49° NW 22:58:18 10° NNE
Cosmos 1980 3.7 22:46:22 10° NNW 22:52:02 82° WSW 22:55:01 29° SSE
Cosmos 1241 Rocket 4.3 22:46:41 10° SSW 22:52:51 81° ESE 22:59:09 10° NE
Meteor 1-4 Rocket 4.0 22:50:08 10° NNW 22:53:32 33° W 22:55:33 19° SW
Okean 1-7 4.4 22:54:19 10° NNE 22:57:48 24° ENE 22:58:51 22° E
Cosmos 990 Rocket 4.0 22:53:35 14° SSW 22:58:06 80° WNW 23:03:17 10° NNE
CZ-4C R/B 3.7 22:57:18 31° SSW 22:58:31 46° W 23:01:54 10° NNW
BREEZE-M DEB (TANK) 4.0 23:01:00 31° ESE 23:01:00 31° ESE 23:06:26 10° ENE
Cosmos 1271 Rocket 4.2 22:58:17 10° NNW 23:01:41 30° W 23:03:46 19° SW
Nadezhda 1 Rocket 4.1 22:57:17 10° NNW 23:03:21 71° W 23:07:09 24° S
Cosmos 2237 Rocket 2.3 22:58:37 10° NNW 23:04:19 72° WSW 23:07:04 31° S
Cosmos 1470 Rocket 4.0 23:02:37 22° SSW 23:05:16 57° W 23:09:33 10° N
Cosmos 1933 Rocket 4.0 23:03:37 22° SSW 23:06:23 59° W 23:10:49 10° N
Cosmos 1703 Rocket 3.9 23:04:50 10° N 23:09:06 50° ENE 23:10:13 39° ESE
Cosmos 2082 3.8 23:04:50 12° SSW 23:10:11 80° WNW 23:15:57 10° NNE
Cosmos 192 4.4 23:09:01 10° NNW 23:13:56 70° WSW 23:15:46 38° S
BREEZE-M DEB (TANK) 4.4 23:00:22 10° WNW 23:14:56 55° N 23:18:53 10° E
Cosmos 1626 2.9 23:16:07 29° SW 23:17:40 48° W 23:21:21 10° N
Cosmos 1269 Rocket 4.0 23:13:09 10° NNW 23:18:29 80° ENE 23:20:28 40° SSE
H-2A R/B 2.7 23:17:35 27° SSW 23:20:19 51° W 23:25:38 10° NNW
Cosmos 2221 Rocket 3.7 23:18:56 10° N 23:23:30 69° E 23:24:36 49° SE
Cosmos 1709 Rocket 3.9 23:22:36 31° S 23:25:42 87° E 23:31:50 10° N
SeaSat 1 3.3 23:26:25 28° ESE 23:28:29 42° NE 23:33:08 10° NNW
NOSS 2-3 (C) 4.1 23:29:03 44° SSE 23:29:54 49° ESE 23:35:17 10° NE
Lacrosse 4 Rocket 1.4 23:29:31 10° NNW 23:33:59 88° ENE 23:34:52 57° SSE
Cosmos 389 Rocket 2.9 23:31:53 10° N 23:35:18 51° ENE 23:35:18 51° ENE
CZ-4B R/B 3.6 23:37:08 17° ENE 23:37:15 17° ENE 23:39:33 10° NNE
Cosmos 1048 Rocket 4.0 23:34:07 10° NNW 23:39:31 84° WSW 23:41:10 46° SSE
Cosmos 1125 Rocket 3.5 23:37:10 32° SSW 23:39:41 80° WNW 23:45:02 10° NNE
Cosmos 2227 Rocket 3.3 23:38:26 10° SW 23:43:47 42° WNW 23:49:11 10° NNE
Meteor 2-10 Rocket 4.4 23:45:28 10° N 23:50:48 43° ENE 23:52:36 33° ESE
NOSS 2-3 (D) 3.9 23:49:46 50° S 23:51:01 71° ESE 23:56:39 10° NE
Cosmos 1933 4.0 23:48:35 10° NNW 23:52:29 45° W 23:53:05 42° WSW
